Regional Weather Roundup
Issued by NWS

Home | Current Version | Previous Version | Text Only | Print | Product List | Glossary On
Versions: 1 2 3 4 5 6 7 8 9 10 11 12 13 14 15 16 17 18 19 20 21 22 23 24 25 26 27 28 29 30 31 32 33 34 35 36 37 38 39 40 41 42 43 44 45 46 47 48 49 50
000
ASUS43 KBIS 050610
RWRND

NORTH DAKOTA REGIONAL WEATHER ROUNDUP
NATIONAL WEATHER SERVICE BISMARCK ND
100 AM CDT SAT SEP 05 2015

NOTE: "FAIR" INDICATES FEW OR NO CLOUDS BELOW 12,000 FEET WITH NO
SIGNIFICANT WEATHER AND/OR OBSTRUCTIONS TO VISIBILITY.


NDZ001>003-009>011-017-050700-
NORTHWEST NORTH DAKOTA

CITY           SKY/WX    TMP DP  RH WIND       PRES   REMARKS
WILLISTON      CLOUDY    59  58  96 N14       29.92F FOG
6HR MIN TEMP:  59; 6HR MAX TEMP:  71;

MINOT          LGT RAIN  61  59  93 N13       29.89S FOG
MINOT AFB      CLOUDY    61  61 100 N8        29.91R
$$

NDZ018>021-031>035-040>046-050700-
SOUTHWEST NORTH DAKOTA

CITY           SKY/WX    TMP DP  RH WIND       PRES   REMARKS
BISMARCK       CLEAR     69  65  86 NE5       29.83R
6HR MIN TEMP:  68; 6HR MAX TEMP:  87;

DICKINSON      CLOUDY    62  60  93 NE14      29.86S FOG
GARRISON         N/A     64  61  90 NE12      29.87S
6HR MIN TEMP:  63; 6HR MAX TEMP:  72;

HETTINGER ARPT MOCLDY    68  61  78 NE9       29.85S
$$

NDZ004>008-012>016-024-026-027-054-050700-
NORTHEAST NORTH DAKOTA

CITY           SKY/WX    TMP DP  RH WIND       PRES   REMARKS
GRAND FORKS    PTCLDY    65  64  97 N7        29.86R
GRND FRKS AFB  PTCLDY    64  64  99 NE7       29.87R
DEVILS LAKE    CLOUDY    64  61  88 NE12      29.88R
$$

NDZ022-023-025-028>030-036>039-047>053-050700-
SOUTHEAST NORTH DAKOTA

CITY           SKY/WX    TMP DP  RH WIND       PRES   REMARKS
FARGO          MOCLDY    74  68  81 SE8       29.83S
6HR MIN TEMP:  74; 6HR MAX TEMP:  79; 6HR PCP:  0.03;

JAMESTOWN      FOG       65  64  97 E3        29.84R VSB 1
$$



USA.gov is the U.S. government's official web portal to all federal, state and local government web resources and services.